Overview Statistics Trail Chart Weather Telemetry Raw packets
 

This is the latest recevied weather packets stored in our database for station/object CW79215. If no packets are shown the sender has not sent any weather packets the latest 10 day(s).

<< 16 17 18 19 20 21 22 >>
Time Temp. Humidity Pressure Rain* Wind** Luminosity Snow
1788313836 12.22° C 77% 1031.6 hPa - - - -
1788312936 12.78° C 76% 1031.5 hPa - - - -
1788312036 12.22° C 77% 1031.6 hPa - - - -
1788311135 12.78° C 75% 1031.7 hPa - - - -
1788310235 12.78° C 76% 1031.8 hPa - - - -
1788309335 12.78° C 76% 1031.7 hPa - - - -
1788308435 12.78° C 75% 1031.9 hPa - - - -
1788307535 13.33° C 74% 1032 hPa - - - -
1788306635 13.33° C 74% 1032 hPa - - - -
1788305735 13.33° C 74% 1032 hPa - - - -
1788304835 13.33° C 75% 1031.9 hPa - - - -
1788303935 13.89° C 72% 1031.9 hPa - - - -
1788303035 13.89° C 73% 1032 hPa - - - -
1788302135 13.89° C 73% 1032 hPa - - - -
1788301234 13.89° C 72% 1031.8 hPa - - - -
1788300334 14.44° C 72% 1031.9 hPa - - - -
1788299433 15° C 70% 1031.9 hPa - - - -
1788298533 15° C 69% 1031.9 hPa - - - -
1788297633 15° C 68% 1031.9 hPa - - - -
1788296733 15.56° C 69% 1031.9 hPa - - - -
1788295833 15.56° C 69% 1032 hPa - - - -
1788294934 16.11° C 66% 1031.9 hPa - - - -
1788294034 16.11° C 65% 1031.8 hPa - - - -
1788293134 16.67° C 65% 1031.8 hPa - - - -
1788292234 16.67° C 64% 1031.8 hPa - - - -

* Rain since midnight (hover to see other rain measurements)
** Current wind speed in m/s (hover to see current wind gust speed)